EW5655 Weather Reports


time (UTC)temp
C
wind
direction
speed
KPH
gust
KPH
rain 1hr
cm
rain 24hr
cm
rain mn
cm
humidity
%
barometer
mb
20260831102026 25 339 0.0 3.2 0.00 0.00 0.00 40 1016.3
20260831101524 25 339 1.6 3.2 0.00 0.00 0.00 40 1016.3
20260831101022 25 339 0.0 3.2 0.00 0.00 0.00 38 1016.2
20260831100522 25 339 0.0 3.2 0.00 0.00 0.00 39 1016.1
20260831100022 25 327 0.0 1.6 0.00 0.00 0.00 40 1016.0
20260831095624 25 327 0.0 0.0 0.00 0.00 0.00 40 1016.0
20260831095021 25 327 0.0 0.0 0.00 0.00 0.00 40 1016.0
20260831094534 26 327 0.0 1.6 0.00 0.00 0.00 39 1015.9
20260831094020 26 327 0.0 1.6 0.00 0.00 0.00 38 1015.8
20260831093518 26 327 0.0 0.0 0.00 0.00 0.00 38 1015.8
20260831093025 26 327 0.0 6.4 0.00 0.00 0.00 37 1015.8
20260831092519 26 327 0.0 6.4 0.00 0.00 0.00 37 1015.8
20260831092016 26 327 0.0 6.4 0.00 0.00 0.00 36 1015.8
20260831091533 26 303 0.0 3.2 0.00 0.00 0.00 37 1015.8
20260831091016 26 281 0.0 1.6 0.00 0.00 0.00 38 1015.8
20260831090517 26 281 0.0 1.6 0.00 0.00 0.00 36 1015.8
20260831090015 27 281 0.0 1.6 0.00 0.00 0.00 36 1015.8
20260831085514 27 281 0.0 1.6 0.00 0.00 0.00 35 1015.9
20260831085012 27 281 0.0 3.2 0.00 0.00 0.00 35 1015.8
20260831084536 27 281 0.0 3.2 0.00 0.00 0.00 34 1015.7
20260831084012 27 281 0.0 3.2 0.00 0.00 0.00 34 1015.7
20260831083511 27 281 0.0 3.2 0.00 0.00 0.00 34 1015.8
20260831083012 27 281 0.0 3.2 0.00 0.00 0.00 35 1015.8
20260831082511 27 281 0.0 6.4 0.00 0.00 0.00 34 1015.7
20260831082011 28 281 0.0 6.4 0.00 0.00 0.00 34 1015.8
20260831081511 28 276 0.0 9.7 0.00 0.00 0.00 33 1015.8
20260831081011 28 210 3.2 12.9 0.00 0.00 0.00 33 1015.8
20260831080510 30 187 4.8 11.3 0.00 0.00 0.00 31 1015.8
20260831080025 30 38 4.8 14.5 0.00 0.00 0.00 28 1015.6
20260831075508 28 42 4.8 14.5 0.00 0.00 0.00 33 1015.6
20260831075007 28 63 4.8 12.9 0.00 0.00 0.00 38 1016.0
20260831074518 28 77 0.0 6.4 0.00 0.00 0.00 33 1016.2
20260831074006 28 96 1.6 4.8 0.00 0.00 0.00 32 1016.2
20260831073508 28 341 1.6 6.4 0.00 0.00 0.00 33 1016.3
20260831073004 28 315 0.0 6.4 0.00 0.00 0.00 32 1016.3
20260831072507 28 313 0.0 9.7 0.00 0.00 0.00 32 1016.3
20260831072004 28 327 3.2 9.7 0.00 0.00 0.00 31 1016.3
20260831071503 28 334 4.8 9.7 0.00 0.00 0.00 31 1016.3
20260831071004 28 3 1.6 9.7 0.00 0.00 0.00 31 1016.3
20260831070504 28 9 4.8 12.9 0.00 0.00 0.00 30 1016.3
20260831070002 29 357 4.8 14.5 0.00 0.00 0.00 30 1016.3
20260831065504 29 360 6.4 14.5 0.00 0.00 0.00 29 1016.2
20260831065101 29 344 6.4 14.5 0.00 0.00 0.00 29 1016.3
20260831064601 29 341 9.7 16.1 0.00 0.00 0.00 29 1016.4
20260831064059 28 1 6.4 16.1 0.00 0.00 0.00 29 1016.4
20260831063557 28 1 1.6 16.1 0.00 0.00 0.00 28 1016.5
20260831063109 28 3 9.7 16.1 0.00 0.00 0.00 28 1016.5
20260831062559 28 11 3.2 8.0 0.00 0.00 0.00 27 1016.5
20260831062055 28 21 0.0 6.4 0.00 0.00 0.00 28 1016.5
20260831061553 28 9 0.0 6.4 0.00 0.00 0.00 30 1016.5
20260831061052 27 331 0.0 3.2 0.00 0.00 0.00 31 1016.3
20260831060550 27 331 0.0 3.2 0.00 0.00 0.00 32 1016.4
20260831060050 27 331 0.0 3.2 0.00 0.00 0.00 33 1016.3
20260831055551 27 345 0.0 3.2 0.00 0.00 0.00 31 1016.3
20260831055048 28 345 0.0 3.2 0.00 0.00 0.00 31 1016.3
20260831054549 28 344 0.0 3.2 0.00 0.00 0.00 31 1016.3
20260831054049 28 344 0.0 3.2 0.00 0.00 0.00 31 1016.3
20260831053549 28 342 0.0 1.6 0.00 0.00 0.00 30 1016.3
20260831053058 28 342 0.0 1.6 0.00 0.00 0.00 32 1016.3
20260831052548 28 342 0.0 0.0 0.00 0.00 0.00 32 1016.4
20260831052051 28 342 0.0 3.2 0.00 0.00 0.00 30 1016.4
20260831051550 28 342 0.0 6.4 0.00 0.00 0.00 30 1016.5
20260831051048 28 342 3.2 6.4 0.00 0.00 0.00 30 1016.4
20260831050547 28 327 1.6 8.0 0.00 0.00 0.00 30 1016.4
20260831050047 29 357 1.6 8.0 0.00 0.00 0.00 30 1016.4
20260831045547 29 355 3.2 8.0 0.00 0.00 0.00 30 1016.5
20260831045047 28 313 0.0 11.3 0.00 0.00 0.00 30 1016.5
20260831044547 28 276 6.4 11.3 0.00 0.00 0.00 30 1016.5
20260831044047 28 120 0.0 1.6 0.00 0.00 0.00 28 1016.3
20260831043548 28 120 0.0 1.6 0.00 0.00 0.00 28 1016.3
20260831043050 28 120 0.0 1.6 0.00 0.00 0.00 28 1016.2
20260831042546 28 120 0.0 1.6 0.00 0.00 0.00 28 1016.2
20260831042046 28 120 0.0 1.6 0.00 0.00 0.00 28 1016.2
20260831041550 28 120 0.0 0.0 0.00 0.00 0.00 29 1016.2
20260831041046 28 120 0.0 1.6 0.00 0.00 0.00 28 1016.1
20260831040545 29 120 0.0 1.6 0.00 0.00 0.00 28 1016.2
20260831040045 29 120 0.0 3.2 0.00 0.00 0.00 28 1016.1
20260831035545 29 120 0.0 1.6 0.00 0.00 0.00 28 1016.1
20260831035044 29 120 0.0 1.6 0.00 0.00 0.00 28 1016.0
20260831034549 29 120 0.0 1.6 0.00 0.00 0.00 29 1016.0
20260831034045 30 120 0.0 1.6 0.00 0.00 0.00 28 1015.9
20260831033544 29 120 0.0 1.6 0.00 0.00 0.00 29 1015.8
20260831033048 30 120 0.0 1.6 0.00 0.00 0.00 29 1015.8
20260831032541 30 120 0.0 0.0 0.00 0.00 0.00 29 1015.7
20260831032041 30 120 0.0 1.6 0.00 0.00 0.00 28 1015.7
20260831031542 30 120 0.0 3.2 0.00 0.00 0.00 27 1015.6
20260831031044 30 120 0.0 6.4 0.00 0.00 0.00 27 1015.5
20260831030541 30 135 0.0 4.8 0.00 0.00 0.00 28 1015.5
20260831030048 30 157 0.0 1.6 0.00 0.00 0.00 28 1015.4
20260831025540 31 157 0.0 0.0 0.00 0.00 0.00 28 1015.3
20260831025043 31 157 0.0 6.4 0.00 0.00 0.00 28 1015.3
20260831024549 31 157 0.0 6.4 0.00 0.00 0.00 27 1015.2
20260831024040 31 157 0.0 1.6 0.00 0.00 0.00 28 1015.1
20260831023540 32 157 0.0 3.2 0.00 0.00 0.00 26 1015.1
20260831023039 32 157 0.0 3.2 0.00 0.00 0.00 25 1015.1
20260831022539 32 157 0.0 6.4 0.00 0.00 0.00 24 1015.0
20260831022039 33 157 1.6 8.0 0.00 0.00 0.00 23 1015.0
20260831021539 33 167 1.6 8.0 0.00 0.00 0.00 23 1015.0
20260831021039 33 160 3.2 9.7 0.00 0.00 0.00 23 1014.9
20260831020541 33 165 1.6 12.9 0.00 0.00 0.00 23 1014.9
20260831020039 33 171 6.4 12.9 0.00 0.00 0.00 22 1014.9
20260831015538 33 144 4.8 9.7 0.00 0.00 0.00 23 1014.9
20260831015038 33 171 1.6 8.0 0.00 0.00 0.00 22 1014.8
20260831014541 33 190 1.6 11.3 0.00 0.00 0.00 22 1014.8
20260831014040 33 179 6.4 11.3 0.00 0.00 0.00 22 1014.7
20260831013538 33 185 3.2 11.3 0.00 0.00 0.00 22 1014.8
20260831013040 33 179 3.2 8.0 0.00 0.00 0.00 22 1014.7
20260831012540 33 198 3.2 8.0 0.00 0.00 0.00 22 1014.7
20260831012040 34 180 4.8 11.3 0.00 0.00 0.00 21 1014.7
20260831011539 34 194 3.2 11.3 0.00 0.00 0.00 21 1014.6
20260831011037 34 214 3.2 11.3 0.00 0.00 0.00 21 1014.7
20260831010536 34 206 4.8 11.3 0.00 0.00 0.00 21 1014.6
20260831010039 34 186 6.4 11.3 0.00 0.00 0.00 21 1014.6
20260831005537 35 211 1.6 11.3 0.00 0.00 0.00 20 1014.7
20260831005037 35 219 3.2 11.3 0.00 0.00 0.00 21 1014.7
20260831004540 35 230 6.4 14.5 0.00 0.00 0.00 20 1014.8
20260831004037 35 225 6.4 14.5 0.00 0.00 0.00 20 1014.7
20260831003537 35 205 6.4 14.5 0.00 0.00 0.00 20 1014.8
20260831003035 35 202 6.4 11.3 0.00 0.00 0.00 20 1014.8
20260831002535 36 207 6.4 12.9 0.00 0.00 0.00 19 1014.7
20260831002038 36 204 6.4 14.5 0.00 0.00 0.00 19 1014.7
20260831001535 36 260 6.4 14.5 0.00 0.00 0.00 19 1014.6
20260831001035 36 165 3.2 12.9 0.00 0.00 0.00 19 1014.6
20260831000535 36 240 4.8 14.5 0.00 0.00 0.00 19 1014.6
20260831000035 36 134 4.8 14.5 0.00 0.00 0.00 18 1014.7
20260830235535 36 127 6.4 14.5 0.00 0.00 0.00 18 1014.7
20260830235038 36 94 6.4 14.5 0.00 0.00 0.00 18 1014.6
20260830234534 36 155 4.8 11.3 0.00 0.00 0.00 18 1014.7
20260830234035 37 101 3.2 9.7 0.00 0.00 0.00 18 1014.7
20260830233534 36 126 4.8 11.3 0.00 0.00 0.00 19 1014.7
20260830233032 36 184 4.8 14.5 0.00 0.00 0.00 18 1014.8
20260830232533 37 112 6.4 14.5 0.00 0.00 0.00 18 1014.8
20260830232033 36 128 8.0 14.5 0.00 0.00 0.00 18 1014.8
20260830231532 36 214 3.2 12.9 0.00 0.00 0.00 19 1014.8
20260830231031 37 170 1.6 14.5 0.00 0.00 0.00 19 1014.9
20260830230530 36 160 6.4 14.5 0.00 0.00 0.00 19 1014.9
20260830230031 37 195 3.2 11.3 0.00 0.00 0.00 20 1015.0
20260830225531 36 156 3.2 11.3 0.00 0.00 0.00 19 1015.0
20260830225030 36 219 4.8 11.3 0.00 0.00 0.00 19 1015.1
20260830224529 37 171 6.4 12.9 0.00 0.00 0.00 19 1015.1
20260830224030 36 182 4.8 17.7 0.00 0.00 0.00 20 1015.1
20260830223529 37 171 9.7 17.7 0.00 0.00 0.00 19 1015.1
20260830223032 37 160 9.7 17.7 0.00 0.00 0.00 19 1015.2
20260830222526 37 114 8.0 22.5 0.00 0.00 0.00 18 1015.3
20260830222026 37 182 8.0 19.3 0.00 0.00 0.00 18 1015.3
20260830221531 37 139 11.3 19.3 0.00 0.00 0.00 18 1015.3
20260830221026 37 163 8.0 24.1 0.00 0.00 0.00 18 1015.4
20260830220526 37 153 12.9 24.1 0.00 0.00 0.00 17 1015.5
20260830220031 37 236 8.0 14.5 0.00 0.00 0.00 19 1015.5
20260830215524 37 180 1.6 17.7 0.00 0.00 0.00 18 1015.6
20260830215027 37 257 9.7 17.7 0.00 0.00 0.00 19 1015.7
20260830214523 37 206 6.4 22.5 0.00 0.00 0.00 19 1015.8
20260830214029 37 250 14.5 22.5 0.00 0.00 0.00 19 1015.8
20260830213521 37 327 6.4 14.5 0.00 0.00 0.00 19 1015.9
20260830213021 37 292 8.0 14.5 0.00 0.00 0.00 20 1015.9
20260830212521 37 252 4.8 11.3 0.00 0.00 0.00 20 1016.0
20260830212020 37 247 4.8 8.0 0.00 0.00 0.00 19 1016.1
20260830211519 37 331 0.0 8.0 0.00 0.00 0.00 19 1016.1
20260830211019 37 276 0.0 4.8 0.00 0.00 0.00 19 1016.2
20260830210517 37 261 1.6 12.9 0.00 0.00 0.00 18 1016.3
20260830210016 36 153 6.4 12.9 0.00 0.00 0.00 19 1016.4
20260830205515 36 169 8.0 12.9 0.00 0.00 0.00 20 1016.6
20260830205014 36 194 6.4 11.3 0.00 0.00 0.00 20 1016.6
20260830204514 36 158 3.2 9.7 0.00 0.00 0.00 21 1016.7
20260830204014 36 163 4.8 12.9 0.00 0.00 0.00 20 1016.8
20260830203512 37 146 4.8 12.9 0.00 0.00 0.00 20 1016.9
20260830203012 36 133 1.6 12.9 0.00 0.00 0.00 21 1017.0
20260830202511 36 172 4.8 12.9 0.00 0.00 0.00 21 1017.1
20260830202011 36 244 3.2 9.7 0.00 0.00 0.00 22 1017.2
20260830201509 36 221 3.2 14.5 0.00 0.00 0.00 21 1017.3
20260830201008 36 267 8.0 12.9 0.00 0.00 0.00 22 1017.3
20260830200508 36 245 4.8 11.3 0.00 0.00 0.00 22 1017.4
20260830200007 36 342 0.0 8.0 0.00 0.00 0.00 22 1017.4
20260830195508 36 29 1.6 8.0 0.00 0.00 0.00 21 1017.5
20260830195006 36 44 1.6 8.0 0.00 0.00 0.00 21 1017.6
20260830194507 36 45 1.6 9.7 0.00 0.00 0.00 22 1017.7
20260830194007 35 7 0.0 11.3 0.00 0.00 0.00 22 1017.8
20260830193505 36 357 8.0 11.3 0.00 0.00 0.00 20 1017.8
20260830193005 35 22 0.0 12.9 0.00 0.00 0.00 23 1017.8
20260830192503 35 322 1.6 14.5 0.00 0.00 0.00 22 1017.9
20260830192004 35 309 3.2 14.5 0.00 0.00 0.00 22 1018.1
20260830191504 35 338 3.2 9.7 0.00 0.00 0.00 22 1018.0
20260830191004 34 186 3.2 12.9 0.00 0.00 0.00 23 1018.1
20260830190504 35 271 4.8 12.9 0.00 0.00 0.00 23 1018.2
20260830190004 35 50 1.6 12.9 0.00 0.00 0.00 23 1018.2
20260830185502 35 126 1.6 12.9 0.00 0.00 0.00 23 1018.3
20260830185002 34 157 1.6 9.7 0.00 0.00 0.00 23 1018.4
20260830184600 34 213 1.6 9.7 0.00 0.00 0.00 24 1018.5
20260830184059 34 203 3.2 8.0 0.00 0.00 0.00 24 1018.6
20260830183600 33 134 0.0 8.0 0.00 0.00 0.00 24 1018.7
20260830183057 33 125 0.0 6.4 0.00 0.00 0.00 27 1018.7
20260830182600 33 221 0.0 6.4 0.00 0.00 0.00 24 1018.8
20260830182058 33 218 0.0 8.0 0.00 0.00 0.00 25 1018.9
20260830181558 33 294 0.0 12.9 0.00 0.00 0.00 25 1018.9
20260830181059 33 248 6.4 12.9 0.00 0.00 0.00 25 1019.0
20260830180554 33 248 3.2 9.7 0.00 0.00 0.00 27 1019.1
20260830180053 33 276 4.8 11.3 0.00 0.00 0.00 26 1019.0
20260830175552 33 167 6.4 11.3 0.00 0.00 0.00 26 1019.1
20260830175051 33 163 6.4 11.3 0.00 0.00 0.00 27 1019.1
20260830174552 32 290 1.6 11.3 0.00 0.00 0.00 26 1019.2
20260830174049 32 266 6.4 12.9 0.00 0.00 0.00 27 1019.2
20260830173549 32 276 6.4 12.9 0.00 0.00 0.00 27 1019.3
20260830173051 32 269 4.8 11.3 0.00 0.00 0.00 27 1019.4
20260830172546 32 182 6.4 11.3 0.00 0.00 0.00 27 1019.4
20260830172045 32 206 1.6 9.7 0.00 0.00 0.00 28 1019.4
20260830171545 31 180 0.0 8.0 0.00 0.00 0.00 28 1019.4
20260830171043 31 207 0.0 8.0 0.00 0.00 0.00 29 1019.4
20260830170542 31 239 3.2 8.0 0.00 0.00 0.00 29 1019.4
20260830170041 31 13 0.0 8.0 0.00 0.00 0.00 29 1019.4
20260830165540 31 17 1.6 8.0 0.00 0.00 0.00 30 1019.4
20260830165042 31 313 3.2 9.7 0.00 0.00 0.00 29 1019.5
20260830164545 31 169 1.6 9.7 0.00 0.00 0.00 29 1019.5
20260830164037 31 190 1.6 9.7 0.00 0.00 0.00 30 1019.5
20260830163537 31 307 4.8 11.3 0.00 0.00 0.00 30 1019.5
20260830163047 30 165 1.6 11.3 0.00 0.00 0.00 30 1019.4
20260830162535 30 213 3.2 11.3 0.00 0.00 0.00 31 1019.5
20260830162034 30 254 6.4 9.7 0.00 0.00 0.00 32 1019.4
20260830161533 30 240 3.2 8.0 0.00 0.00 0.00 31 1019.4
20260830161034 30 129 0.0 6.4 0.00 0.00 0.00 30 1019.4
20260830160531 31 111 1.6 6.4 0.00 0.00 0.00 31 1019.4
20260830160050 30 129 1.6 6.4 0.00 0.00 0.00 31 1019.4
20260830155529 30 26 1.6 6.4 0.00 0.00 0.00 32 1019.4
20260830155029 29 30 0.0 9.7 0.00 0.00 0.00 32 1019.4
20260830154528 29 30 3.2 11.3 0.00 0.00 0.00 34 1019.4
20260830154032 29 345 3.2 11.3 0.00 0.00 0.00 34 1019.4
20260830153529 28 357 3.2 9.7 0.00 0.00 0.00 36 1019.5
20260830153027 28 77 3.2 9.7 0.00 0.00 0.00 37 1019.5
20260830152530 28 85 1.6 9.7 0.00 0.00 0.00 37 1019.5
20260830152025 28 13 3.2 11.3 0.00 0.00 0.00 38 1019.5
20260830151524 28 34 6.4 12.9 0.00 0.00 0.00 38 1019.5
20260830151024 27 30 3.2 12.9 0.00 0.00 0.00 40 1019.4
20260830150523 27 38 1.6 11.3 0.00 0.00 0.00 40 1019.5
20260830150023 27 25 1.6 12.9 0.00 0.00 0.00 41 1019.6
20260830145524 27 20 4.8 12.9 0.00 0.00 0.00 41 1019.5
20260830145021 26 26 4.8 11.3 0.00 0.00 0.00 41 1019.6
20260830144521 26 29 4.8 11.3 0.00 0.00 0.00 41 1019.6
20260830144020 26 23 1.6 9.7 0.00 0.00 0.00 42 1019.7
20260830143519 26 47 3.2 9.7 0.00 0.00 0.00 42 1019.6
20260830143018 25 29 0.0 8.0 0.00 0.00 0.00 43 1019.6
20260830142520 25 30 3.2 8.0 0.00 0.00 0.00 44 1019.6
20260830142018 25 13 3.2 9.7 0.00 0.00 0.00 44 1019.5
20260830141515 25 352 4.8 9.7 0.00 0.00 0.00 44 1019.5
20260830141013 25 7 0.0 8.0 0.00 0.00 0.00 45 1019.5
20260830140513 24 51 1.6 8.0 0.00 0.00 0.00 44 1019.5
20260830140011 24 22 0.0 8.0 0.00 0.00 0.00 45 1019.4
20260830135510 24 18 0.0 6.4 0.00 0.00 0.00 44 1019.4
20260830135010 23 44 0.0 6.4 0.00 0.00 0.00 44 1019.3
20260830134510 23 22 0.0 6.4 0.00 0.00 0.00 43 1019.2
20260830134010 23 13 0.0 6.4 0.00 0.00 0.00 42 1019.3
20260830133510 23 11 0.0 3.2 0.00 0.00 0.00 41 1019.3
20260830133008 23 355 0.0 3.2 0.00 0.00 0.00 42 1019.3
20260830132509 23 355 0.0 6.4 0.00 0.00 0.00 42 1019.3
20260830132007 23 348 1.6 4.8 0.00 0.00 0.00 42 1019.1
20260830131507 23 347 1.6 11.3 0.00 0.00 0.00 42 1019.0
20260830131004 23 340 4.8 11.3 0.00 0.00 0.00 42 1019.0
20260830130504 23 324 4.8 11.3 0.00 0.00 0.00 41 1018.9
20260830130002 24 357 6.4 11.3 0.00 0.00 0.00 41 1018.8
20260830125500 24 321 6.4 11.3 0.00 0.00 0.00 40 1018.8
20260830125100 24 320 6.4 11.3 0.00 0.00 0.00 40 1018.7
20260830124559 24 318 6.4 11.3 0.00 0.00 0.00 39 1018.6
20260830124058 24 342 1.6 8.0 0.00 0.00 0.00 37 1018.6
20260830123600 23 313 1.6 6.4 0.00 0.00 0.00 38 1018.5
20260830123057 23 313 0.0 6.4 0.00 0.00 0.00 38 1018.5
20260830122555 24 313 0.0 6.4 0.00 0.00 0.00 38 1018.4
20260830122055 24 293 0.0 6.4 0.00 0.00 0.00 39 1018.3
20260830121602 24 286 0.0 6.4 0.00 0.00 0.00 37 1018.4
20260830121053 24 41 0.0 0.0 0.00 0.00 0.00 37 1018.3
20260830120552 24 41 0.0 1.6 0.00 0.00 0.00 36 1018.4
20260830120052 25 41 0.0 1.6 0.00 0.00 0.00 35 1018.4
20260830115552 25 41 0.0 3.2 0.00 0.00 0.00 35 1018.4
20260830115051 25 41 0.0 6.4 0.00 0.00 0.00 35 1018.3
20260830114649 25 49 0.0 6.4 0.00 0.00 0.00 35 1018.3
20260830114052 25 63 0.0 6.4 0.00 0.00 0.00 35 1018.3
20260830113549 25 43 0.0 6.4 0.00 0.00 0.00 35 1018.2
20260830113048 25 63 1.6 6.4 0.00 0.00 0.00 35 1018.2
20260830112547 25 44 0.0 6.4 0.00 0.00 0.00 35 1018.3
20260830112047 25 49 0.0 6.4 0.00 0.00 0.00 35 1018.4
20260830111547 25 47 0.0 6.4 0.00 0.00 0.00 34 1018.3
20260830111047 25 44 0.0 6.4 0.00 0.00 0.00 35 1018.2
20260830110547 25 51 1.6 6.4 0.00 0.00 0.00 35 1018.3
20260830110047 25 40 0.0 6.4 0.00 0.00 0.00 35 1018.3
20260830105546 25 65 0.0 3.2 0.00 0.00 0.00 35 1018.3
20260830105046 25 56 0.0 8.0 0.00 0.00 0.00 35 1018.3
20260830104545 25 47 1.6 9.7 0.00 0.00 0.00 35 1018.3
20260830104045 25 58 4.8 9.7 0.00 0.00 0.00 35 1018.4
20260830103544 25 38 0.0 3.2 0.00 0.00 0.00 35 1018.3
20260830103048 25 43 0.0 3.2 0.00 0.00 0.00 35 1018.4
20260830102544 25 63 0.0 6.4 0.00 0.00 0.00 36 1018.4
20260830102045 25 59 0.0 8.0 0.00 0.00 0.00 36 1018.3